This is the latest recevied weather packets stored in our database for station/object SQ3MKP-13. If no packets are shown the sender has not sent any weather packets the latest 10 day(s).
| Time | Temp. | Humidity | Pressure | Rain* | Wind** | Luminosity | Snow |
|---|---|---|---|---|---|---|---|
| 1777901145 | 23.89° C | 40% | 1002.2 hPa | - | - | 567 W/m² | - |
| 1777900845 | 23.89° C | 40% | 1002.1 hPa | - | - | 545 W/m² | - |
| 1777900544 | 23.89° C | 40% | 1002.2 hPa | - | - | 581 W/m² | - |
| 1777900243 | 23.89° C | 40% | 1002.2 hPa | - | - | 601 W/m² | - |
| 1777899942 | 23.33° C | 40% | 1002.3 hPa | - | - | 588 W/m² | - |
| 1777899641 | 23.89° C | 40% | 1002.3 hPa | - | - | 589 W/m² | - |
| 1777899340 | 23.89° C | 42% | 1002.3 hPa | - | - | 528 W/m² | - |
| 1777899039 | 23.33° C | 42% | 1002.3 hPa | - | - | 614 W/m² | - |
| 1777898738 | 23.33° C | 44% | 1002.3 hPa | - | - | 607 W/m² | - |
| 1777898438 | 23.89° C | 42% | 1002.3 hPa | - | - | 454 W/m² | - |
| 1777898136 | 23.33° C | 43% | 1002.3 hPa | - | - | 563 W/m² | - |
| 1777897835 | 24.44° C | 42% | 1002.4 hPa | - | - | 505 W/m² | - |
| 1777897535 | 23.89° C | 42% | 1002.3 hPa | - | - | 599 W/m² | - |
| 1777897234 | 23.33° C | 42% | 1002.4 hPa | - | - | 633 W/m² | - |
| 1777896933 | 22.78° C | 43% | 1002.5 hPa | - | - | 642 W/m² | - |
| 1777896632 | 23.33° C | 43% | 1002.6 hPa | - | - | 704 W/m² | - |
| 1777896331 | 23.33° C | 42% | 1002.6 hPa | - | - | 710 W/m² | - |
| 1777896030 | 23.33° C | 42% | 1002.6 hPa | - | - | 497 W/m² | - |
| 1777895729 | 23.33° C | 43% | 1002.6 hPa | - | - | 735 W/m² | - |
| 1777895428 | 23.33° C | 42% | 1002.7 hPa | - | - | 676 W/m² | - |
| 1777895127 | 23.33° C | 43% | 1002.6 hPa | - | - | 509 W/m² | - |
| 1777894826 | 22.78° C | 42% | 1002.6 hPa | - | - | 698 W/m² | - |
| 1777894525 | 22.78° C | 43% | 1002.7 hPa | - | - | 675 W/m² | - |
| 1777894224 | 22.78° C | 44% | 1002.7 hPa | - | - | 678 W/m² | - |
| 1777893924 | 22.78° C | 43% | 1002.7 hPa | - | - | 673 W/m² | - |
* Rain since midnight (hover to see other rain measurements)
** Current wind speed in m/s (hover to see current wind gust speed)